Location: Unspecified
(0.0000°N, 0.0000°E)
Time: 02:00:55
(UTC+00:00)

Daily predictions for brighter satellites

Satellite Brightness Start Highest point End
(mag) Time Altitude Azimuth Time Altitude Azimuth Time Altitude Azimuth
SL-16 R/B 4.4 03:06:38 21° N 03:06:38 21° N 03:08:30 10° N
Cosmos 2082 Rocket 3.7 03:27:45 10° NNE 03:32:45 32° ENE 03:37:45 10° SE
Ariane H10-3 2.5 03:55:12 48° NE 03:55:12 48° NE 04:00:37 10° E
ARIANE 5 DEB (SYLDA) 4.1 03:51:36 51° WSW 03:54:42 81° S 03:59:15 10° E
Meteor 2-9 Rocket 4.5 03:56:51 55° SE 03:57:47 65° E 04:03:22 10° NNE
Ariane H10+ 4.5 03:51:27 33° WNW 03:57:54 70° N 04:45:24 10° E
Thor Agena Rocket 4.3 03:54:56 10° SSE 04:00:01 50° ENE 04:05:00 10° N
Ariane 44P Rocket 3.6 04:04:06 56° WSW 04:05:31 70° S 04:09:10 10° E
Cosmos 1833 Rocket 3.2 04:03:10 10° N 04:08:39 59° ENE 04:14:10 10° SSE
Genesis I 4.3 04:09:07 42° ESE 04:09:07 42° ESE 04:12:45 10° NE
Gblst 52 Del rocket 4.5 04:12:50 51° SSW 04:14:48 88° ESE 04:21:00 10° NE
Lacrosse 5 rocket 3.3 04:14:31 18° SE 04:15:32 20° ESE 04:18:23 10° ENE
USA 234 3.5 04:10:51 10° SE 04:17:19 67° NE 04:23:47 10° NNW
Ariane Rocket 4.1 04:13:16 10° NNE 04:18:00 42° ESE 04:22:16 13° S
Cosmos 2369 Rocket 3.8 04:21:46 20° NW 04:21:46 20° NW 04:24:23 10° NNW
ISS -1.7 04:23:14 30° N 04:23:14 30° N 04:25:06 10° NNE
CZ-3 R/B 3.2 04:08:16 32° WSW 04:22:00 89° SSE 04:29:12 10° ENE
Ariane 42L Rocket 3.4 04:25:58 28° N 04:26:21 29° N 04:30:53 10° ENE
Sakura Rocket 3.9 04:25:46 35° WNW 04:28:28 80° SSW 04:36:23 10° ESE
Cosmos 1825 Rocket 3.4 04:25:01 10° N 04:29:23 75° W 04:30:47 43° SSW
Cosmos 1758 Rocket 4.3 04:25:18 10° N 04:29:41 55° E 04:34:05 10° SSE
Meteor 1-21 4.5 04:30:54 10° N 04:36:27 68° E 04:42:01 10° SSE
ADEOS II 2.5 04:34:21 10° N 04:39:15 41° WNW 04:40:31 35° WSW
Ariane H10-3 3.7 04:36:34 32° W 04:39:30 89° N 05:23:55 10° E
FALCON 9 R/B 3.2 04:40:57 21° S 04:40:57 21° S 04:45:16 10° SSE
Cosmos 1072 Rocket 4.4 04:35:30 16° S 04:40:36 72° W 04:46:49 10° N
Tsikada Rocket 4.1 04:36:30 10° NNW 04:42:29 51° W 04:48:36 10° SSW
CSL-04 Rocket 4.3 04:38:38 10° NNE 04:44:02 57° ESE 04:49:30 10° S
SEDSat Delta rocket 4.0 04:41:07 32° WSW 04:44:13 73° NW 04:50:58 10° NE
GPS 2-05 Rocket1 3.0 04:44:11 46° NW 04:44:19 46° NW 04:47:25 10° NE
ATLAS 5 CENTAUR R/B 2.9 04:39:17 10° NW 04:45:18 40° WSW 04:51:19 10° S
CZ-3C R/B 4.0 04:41:11 10° NNW 04:45:56 27° NE 05:03:19 10° E
DNEPR-1 R/B 4.4 04:44:56 10° N 04:49:04 48° ENE 04:53:01 10° SE
Cosmos 1503 Rocket 4.2 04:45:18 10° N 04:50:29 72° ENE 04:55:44 10° SSE
ATLAS CENTAUR R/B 4.4 04:46:34 10° S 04:50:33 36° ESE 05:00:36 10° NE
ADEOS Rocket 3.4 04:45:35 10° N 04:51:18 47° WNW 04:56:31 15° SSW
Cosmos 2228 4.2 04:52:18 24° W 04:52:18 24° W 04:55:33 10° NNW
Milstar 3 Cent rocket 4.2 04:46:36 21° W 04:52:27 50° NNW 05:08:52 10° NE
Cosmos 1943 Rocket 2.8 04:51:13 27° WSW 04:52:58 33° WNW 04:57:50 10° NNW
MOS 1 Rocket 3.8 04:48:22 10° NNE 04:53:43 74° E 04:58:51 10° S
OTV 4 2.5 04:55:22 16° S 04:55:22 16° S 04:56:16 10° SSE
Intelsat 5-1 Rocket 4.0 04:47:51 19° SW 04:55:47 43° SSE 05:00:32 10° E
CZ-4 R/B 4.0 04:53:26 10° NE 04:56:34 21° ESE 04:59:42 10° SSE
BREEZE-M DEB (TANK) 4.1 04:37:50 10° NW 04:57:49 68° WSW 05:02:27 10° SSE
Cosmos 2034 Rocket 4.0 04:52:23 10° S 04:58:46 78° W 05:05:07 10° N
Cosmos 2346 Rocket 4.4 04:53:42 10° N 04:59:55 83° W 05:06:12 10° S
Hubble Space Telescope 1.8 05:00:16 25° SW 05:01:12 27° SSW 05:04:46 10° SSE
ARIANE 5 DEB (SYLDA) 1.9 05:01:46 23° W 05:03:37 89° SSW 05:05:45 10° E
Lacrosse 5 2.0 05:01:10 20° SW 05:04:30 55° WNW 05:09:27 10° NNE
Cosmos 1354 Rocket 3.9 05:01:28 10° NNW 05:06:40 68° WSW 05:11:55 10° S
Cosmos 1818 3.7 05:03:03 16° SW 05:07:20 57° WNW 05:12:39 10° N
Meteor 1-31 Rocket 4.1 05:04:12 10° NNW 05:07:20 23° WNW 05:08:38 19° WSW
USA 215 3.6 05:02:22 10° NNE 05:08:35 49° NW 05:14:04 14° SW
Cosmos 1812 Rocket 4.2 05:10:21 12° SSW 05:13:52 34° W 05:17:49 10° NNW
H-10 deb 4.2 04:48:18 10° W 05:14:46 55° N 05:19:07 10° ENE
Cosmos 2082 Rocket 3.5 05:12:58 10° WNW 05:16:33 17° WSW 05:20:09 10° SW
IRS-1A Rocket 4.3 05:16:55 10° N 05:22:29 76° WNW 05:28:11 10° SSW
Delta 7925 Rocket 3.6 05:21:45 12° WSW 05:26:24 83° NNW 05:32:43 10° ENE
NOSS 3-3 (A) 3.9 05:21:09 10° SSW 05:27:16 74° WNW 05:33:24 10° NNE
NOSS 3-3 (C) 3.9 05:21:14 10° SSW 05:27:22 75° WNW 05:33:30 10° NNE
USA 229 DEB 4.2 05:23:35 10° NNW 05:30:44 72° ENE 05:37:54 10° SSE
USA 229 4.2 05:23:40 10° NNW 05:30:49 71° ENE 05:38:00 10° SSE
DELTA 2 R/B 2.2 05:28:25 10° SW 05:31:08 30° WNW 05:32:58 10° N
DELTA 2 R/B (2) 3.2 05:34:55 10° SW 05:36:38 63° SE 05:38:48 10° NE
SKYMED 2 4.2 05:32:28 10° SSE 05:36:47 64° ENE 05:41:03 10° N
OAO 3 Rocket 4.2 05:37:24 10° W 05:41:34 32° NW 05:45:44 10° NNE
